This is the latest recevied weather packets stored in our database for station/object DL1MMS-10. If no packets are shown the sender has not sent any weather packets the latest 10 day(s).
| Time | Temp. | Humidity | Pressure | Rain* | Wind** | Luminosity | Snow |
|---|---|---|---|---|---|---|---|
| 1777718325 | 32.78° C | 26% | 1022.3 hPa | 0 mm | - | - | - |
| 1777718024 | 32.78° C | 26% | 1022.2 hPa | 0 mm | - | - | - |
| 1777717724 | 32.22° C | 26% | 1022.4 hPa | 0 mm | - | - | - |
| 1777717424 | 31.11° C | 28% | 1022.4 hPa | 0 mm | - | - | - |
| 1777717124 | 30° C | 30% | 1022.5 hPa | 0 mm | - | - | - |
| 1777716823 | 27.78° C | 34% | 1022.5 hPa | 0 mm | - | - | - |
| 1777716523 | 25.56° C | 36% | 1022.6 hPa | 0 mm | - | - | - |
| 1777716223 | 22.22° C | 39% | 1022.7 hPa | 0 mm | - | - | - |
| 1777715922 | 21.67° C | 40% | 1022.6 hPa | 0 mm | - | - | - |
| 1777715622 | 21.11° C | 40% | 1022.7 hPa | 0 mm | - | - | - |
| 1777715322 | 21.11° C | 41% | 1022.7 hPa | 0 mm | - | - | - |
| 1777715022 | 20.56° C | 41% | 1022.8 hPa | 0 mm | - | - | - |
| 1777714721 | 20° C | 41% | 1022.9 hPa | 0 mm | - | - | - |
| 1777714421 | 20° C | 42% | 1023 hPa | 0 mm | - | - | - |
| 1777714121 | 19.44° C | 42% | 1023.1 hPa | 0 mm | - | - | - |
| 1777713821 | 19.44° C | 42% | 1023.2 hPa | 0 mm | - | - | - |
| 1777713520 | 19.44° C | 43% | 1023.2 hPa | 0 mm | - | - | - |
| 1777713220 | 18.89° C | 44% | 1023.1 hPa | 0 mm | - | - | - |
| 1777712920 | 18.89° C | 45% | 1023.2 hPa | 0 mm | - | - | - |
| 1777712619 | 18.33° C | 46% | 1023.1 hPa | 0 mm | - | - | - |
| 1777712319 | 18.33° C | 46% | 1023.1 hPa | 0 mm | - | - | - |
| 1777712019 | 17.78° C | 47% | 1023.1 hPa | 0 mm | - | - | - |
| 1777711718 | 17.78° C | 50% | 1023 hPa | 0 mm | - | - | - |
| 1777711418 | 17.22° C | 50% | 1023.1 hPa | 0 mm | - | - | - |
| 1777711118 | 17.22° C | 52% | 1023.2 hPa | 0 mm | - | - | - |
* Rain latest hour (hover to see other rain measurements)
** Current wind speed in m/s (hover to see current wind gust speed)